Deer Park, WA
on Tuesday, November 13, 2012

Tuesday
Previous Day Next Day
Daily Summary
 ActualAverageRecord
Temperature
Mean Temperature °F 35°F  
Max Temperature 37°F 43°F 57°F (1999)
Min Temperature 33°F 27°F 12°F (2014)
Degree Days
Heating Degree Days 30 30  
Month to date heating degree days 350 368  
Since 1 July heating degree days 1262 1436  
Cooling Degree Days 0 0  
Month to date cooling degree days 0 0  
Year to date cooling degree days 232 187  
Moisture
Dew Point 34°F   
Average Humidity 96    
Maximum Humidity 100    
Minimum Humidity 92    
Precipitation
Precipitation 0.04 in 0.11 in 0.52 in (2006)
Month to date precipitation 1.02 1.33  
Year to date precipitation 21.02 17.39  
Wind
Wind Speed 1 mph   
Max Wind Speed 5 mph   
Max Gust Speed 6 mph   
Visibility 2 miles   
Events Fog   

Key: T is trace of precipitation, MM is missing value
Source: NWS Daily Summary
Time(PST)TemperatureDew PointHumidity Pressure Visibility Wind DirectionWind SpeedGust SpeedPrecipitationEvents Conditions
12:28 AM 33.8°F 33.8°F 100% 30.25 in 3.0 miles Calm Calm - N/A   Overcast
12:53 AM 33.1°F 32.0°F 96% 30.31 in 4.0 miles Calm Calm - N/A   Overcast
1:20 AM 33.8°F 33.8°F 100% 30.25 in 3.0 miles Calm Calm - N/A   Overcast
1:37 AM 33.8°F 33.8°F 100% 30.25 in 2.5 miles Calm Calm - N/A   Overcast
1:53 AM 33.1°F 33.1°F 100% 30.32 in 2.0 miles Calm Calm - N/A   Overcast
2:20 AM 33.8°F 33.8°F 100% 30.25 in 1.8 miles ENE 3.5 mph - N/A   Overcast
2:44 AM 33.8°F 33.8°F 100% 30.25 in 2.0 miles Calm Calm - N/A   Overcast
2:53 AM 33.1°F 33.1°F 100% 30.31 in 2.5 miles Calm Calm - N/A   Overcast
3:08 AM 33.8°F 33.8°F 100% 30.25 in 1.5 miles Calm Calm - 0.01 in   Overcast
3:53 AM 33.1°F 33.1°F 100% 30.31 in 1.2 miles Calm Calm - 0.01 in   Overcast
4:50 AM 33.8°F 33.8°F 100% 30.24 in 2.0 miles Calm Calm - N/A   Overcast
4:53 AM 33.1°F 33.1°F 100% 30.30 in 2.0 miles Calm Calm - N/A   Overcast
5:02 AM 33.8°F 33.8°F 100% 30.24 in 1.5 miles Calm Calm - N/A   Overcast
5:41 AM 33.8°F 33.8°F 100% 30.24 in 2.0 miles Calm Calm - 0.01 in   Overcast
5:53 AM 33.1°F 33.1°F 100% 30.30 in 2.5 miles Calm Calm - 0.01 in   Overcast
6:19 AM 33.8°F 33.8°F 100% 30.24 in 1.8 miles Calm Calm - N/A   Overcast
6:33 AM 33.8°F 33.8°F 100% 30.24 in 2.0 miles Calm Calm - N/A   Overcast
6:53 AM 33.1°F 33.1°F 100% 30.30 in 2.5 miles Calm Calm - N/A   Overcast
7:04 AM 33.8°F 33.8°F 100% 30.24 in 1.5 miles Calm Calm - N/A   Overcast
7:29 AM 33.8°F 33.8°F 100% 30.25 in 1.5 miles North 3.5 mph - N/A   Overcast
7:53 AM 34.0°F 34.0°F 100% 30.31 in 1.2 miles NE 3.5 mph - N/A   Overcast
8:53 AM 35.1°F 35.1°F 100% 30.30 in 1.5 miles Calm Calm - N/A   Overcast
9:28 AM 35.6°F 33.8°F 93% 30.24 in 0.5 miles Calm Calm - N/A Fog Fog
9:53 AM 35.1°F 34.0°F 96% 30.30 in 0.8 miles Calm Calm - 0.01 in   Overcast
10:04 AM 35.6°F 35.6°F 100% 30.24 in 1.5 miles Calm Calm - N/A   Overcast
10:25 AM 35.6°F 35.6°F 100% 30.24 in 0.8 miles ENE 4.6 mph - N/A   Overcast
10:53 AM 35.1°F 34.0°F 96% 30.29 in 1.2 miles Calm Calm - N/A   Overcast
11:09 AM 35.6°F 35.6°F 100% 30.23 in 0.5 miles Calm Calm - N/A Fog Fog
11:53 AM 36.0°F 36.0°F 100% 30.27 in 0.5 miles Calm Calm - N/A Fog Fog
12:21 PM 35.6°F 35.6°F 100% 30.21 in 0.5 miles Calm Calm - 0.01 in Fog Fog
12:53 PM 36.0°F 36.0°F 100% 30.26 in 0.5 miles Calm Calm - 0.01 in Fog Fog
1:53 PM 36.0°F 35.1°F 97% 30.25 in 1.2 miles Calm Calm - N/A   Overcast
2:03 PM 35.6°F 35.6°F 100% 30.19 in 0.5 miles Calm Calm - N/A Fog Fog
2:42 PM 35.6°F 35.6°F 100% 30.19 in 0.2 miles Calm Calm - N/A Fog Fog
2:53 PM 36.0°F 36.0°F 100% 30.24 in 0.2 miles Calm Calm - N/A Fog Fog
3:53 PM 35.1°F 35.1°F 100% 30.25 in 0.2 miles Calm Calm - N/A Fog Fog
4:15 PM 35.6°F 35.6°F 100% 30.19 in 0.2 miles Calm Calm - N/A Fog Fog
4:28 PM 35.6°F 33.8°F 93% 30.18 in 0.5 miles Calm Calm - N/A Fog Fog
4:42 PM 35.6°F 35.6°F 100% 30.18 in 1.2 miles ENE 3.5 mph - N/A   Overcast
4:53 PM 34.0°F 34.0°F 100% 30.24 in 0.8 miles NE 3.5 mph - N/A   Overcast
5:04 PM 33.8°F 33.8°F 100% 30.17 in 1.0 miles NE 4.6 mph - N/A   Overcast
5:21 PM 35.6°F 35.6°F 100% 30.17 in 2.0 miles Calm Calm - N/A   Overcast
5:29 PM 35.6°F 35.6°F 100% 30.17 in 4.0 miles ENE 3.5 mph - N/A   Overcast
5:42 PM 35.6°F 35.6°F 100% 30.17 in 2.0 miles Calm Calm - N/A   Overcast
5:49 PM 35.6°F 35.6°F 100% 30.17 in 1.2 miles Calm Calm - N/A   Overcast
5:50 PM 35.1°F 35.1°F 100% 30.23 in 1.2 miles Calm Calm - N/A   Overcast
5:57 PM 35.6°F 35.6°F 100% 30.17 in 0.8 miles Calm Calm - N/A   Overcast
6:26 PM 33.8°F 33.8°F 100% 30.17 in 0.5 miles Calm Calm - N/A Fog Fog
6:53 PM 35.1°F 35.1°F 100% 30.23 in 0.5 miles Calm Calm - N/A Fog Fog
7:14 PM 35.6°F 35.6°F 100% 30.16 in 0.8 miles Calm Calm - N/A   Overcast
7:26 PM 33.8°F 33.8°F 100% 30.16 in 2.0 miles North 3.5 mph - N/A   Overcast
7:35 PM 35.6°F 35.6°F 100% 30.16 in 4.0 miles Calm Calm - N/A   Overcast
7:49 PM 35.6°F 35.6°F 100% 30.17 in 2.0 miles Calm Calm - N/A   Overcast
7:53 PM 35.1°F 35.1°F 100% 30.22 in 2.0 miles Calm Calm - N/A   Overcast
8:16 PM 33.8°F 33.8°F 100% 30.17 in 1.2 miles Calm Calm - N/A   Overcast
8:33 PM 33.8°F 33.8°F 100% 30.16 in 0.8 miles NNW 3.5 mph - N/A   Overcast
8:53 PM 34.0°F 34.0°F 100% 30.22 in 2.0 miles NNE 3.5 mph - N/A   Overcast
9:01 PM 35.6°F 33.8°F 93% 30.16 in 4.0 miles Calm Calm - N/A   Overcast
9:28 PM 33.8°F 33.8°F 100% 30.16 in 2.0 miles Calm Calm - N/A   Overcast
9:50 PM 33.8°F 33.8°F 100% 30.16 in 1.0 miles Calm Calm - N/A   Overcast
9:53 PM 34.0°F 33.1°F 96% 30.22 in 1.0 miles West 3.5 mph - N/A   Overcast
10:30 PM 33.8°F 33.8°F 100% 30.16 in 0.8 miles Calm Calm - N/A   Overcast
10:34 PM 33.8°F 33.8°F 100% 30.16 in 1.0 miles Calm Calm - N/A   Overcast
10:53 PM 34.0°F 34.0°F 100% 30.21 in 0.8 miles Calm Calm - N/A   Overcast
11:31 PM 33.8°F 33.8°F 100% 30.15 in 1.0 miles Calm Calm - N/A   Overcast
11:40 PM 33.8°F 33.8°F 100% 30.15 in 0.8 miles Calm Calm - N/A   Overcast
11:53 PM 33.1°F 33.1°F 100% 30.21 in 1.0 miles Calm Calm - N/A   Overcast
Moon Phase
Nov. 13 Nov. 13 Nov. 20 Nov. 28 Dec. 06
Sunrise:06:53 AM (PST) Moon Rise:06:38 AM (PST)11/13
Sunset:04:13 PM (PST) Moon Set:04:08 PM (PST)11/13

Copyright © 2014 The Weather Underground, Inc.